Weather History for KJSV - April, 2013

Change the Weather History Date:

Tuesday, April 9, 2013

  Actual Average (KFSM) Record (KFSM)
Temperature  
Mean Temperature 76 °F 60 °F  
Max Temperature 84 °F 72 °F 92 °F (2011)
Min Temperature 68 °F 47 °F 28 °F (1964)
Degree Days  
Heating Degree Days 0 7  
Month to date heating degree days 67  
Since 1 July heating degree days 3126  
Cooling Degree Days 11 1  
Month to date cooling degree days 9  
Year to date cooling degree days 21  
Growing Degree Days 26 (Base 50)    
Moisture  
Dew Point 58 °F    
Average Humidity 56    
Maximum Humidity 73    
Minimum Humidity 40    
Precipitation  
Precipitation 0.00 in 0.14 in 2.46 in (2008)
Month to date precipitation 1.17  
Year to date precipitation 10.59  
Sea Level Pressure  
Sea Level Pressure 29.74 in    
Wind  
Wind Speed 9 mph (SE)    
Max Wind Speed 18 mph    
Max Gust Speed 24 mph    
Visibility 10 miles    
Events      
T = Trace of Precipitation, MM = Missing Value Source: NWS Daily Summary

Daily Weather History Graph

Daily Weather History Graph

Search for Another Location

Airport or City:

Trip Planner

Search our weather history database for the weather conditions in past years. The results will help you decide how hot, cold, wet, or windy it might be!

Date:

Astronomy

Apr. 09, 2013 Rise Set
Actual Time 6:54 AM CDT 7:47 PM CDT
Civil Twilight 6:28 AM CDT 8:13 PM CDT
Nautical Twilight 5:57 AM CDT 8:44 PM CDT
Astronomical Twilight 5:26 AM CDT 9:15 PM CDT
Moon 6:16 AM CDT (4/9) 7:23 PM CDT (4/9)
Length of Visible Light 13h 45m
Length of Day
12h 53m
Waning Crescent, 1% of the Moon is Illuminated
Apr 9
Waning Crescent
Apr 10
New
Apr 18
First Quarter
Apr 25
Full
May 2
Last Quarter

Hourly Weather History & Observations

Time (CDT) Temp. Heat Index Dew Point Humidity Pressure Visibility Wind Dir Wind Speed Gust Speed Precip Events Conditions
12:15 AM 73.4 °F - 59.0 °F 61% 29.74 in 10.0 mi SE 5.8 mph - N/A   Mostly Cloudy
12:55 AM 71.6 °F - 57.2 °F 60% 29.73 in 10.0 mi SSE 12.7 mph 17.3 mph N/A   Overcast
1:15 AM 73.4 °F - 55.4 °F 53% 29.73 in 10.0 mi SSE 13.8 mph 19.6 mph N/A   Mostly Cloudy
1:35 AM 71.6 °F - 55.4 °F 57% 29.74 in 10.0 mi SSE 10.4 mph 18.4 mph N/A   Mostly Cloudy
1:55 AM 71.6 °F - 55.4 °F 57% 29.74 in 10.0 mi SSE 8.1 mph - N/A   Overcast
2:15 AM 71.6 °F - 55.4 °F 57% 29.74 in 10.0 mi SE 8.1 mph - N/A   Overcast
2:35 AM 69.8 °F - 55.4 °F 60% 29.75 in 10.0 mi SE 6.9 mph - N/A   Overcast
2:55 AM 69.8 °F - 55.4 °F 60% 29.75 in 10.0 mi SSE 8.1 mph - N/A   Overcast
3:15 AM 69.8 °F - 55.4 °F 60% 29.75 in 10.0 mi SE 5.8 mph - N/A   Overcast
3:35 AM 69.8 °F - 53.6 °F 56% 29.74 in 10.0 mi SSE 8.1 mph - N/A   Mostly Cloudy
3:55 AM 69.8 °F - 53.6 °F 56% 29.74 in 10.0 mi SE 9.2 mph - N/A   Mostly Cloudy
4:15 AM 68.0 °F - 55.4 °F 64% 29.74 in 10.0 mi SSE 11.5 mph - N/A   Mostly Cloudy
4:35 AM 68.0 °F - 55.4 °F 64% 29.74 in 10.0 mi SE 5.8 mph - N/A   Mostly Cloudy
4:55 AM 68.0 °F - 55.4 °F 64% 29.74 in 10.0 mi SE 4.6 mph - N/A   Overcast
5:15 AM 68.0 °F - 55.4 °F 64% 29.74 in 10.0 mi SSE 10.4 mph - N/A   Overcast
5:35 AM 68.0 °F - 57.2 °F 68% 29.74 in 10.0 mi SSE 8.1 mph - N/A   Overcast
5:55 AM 68.0 °F - 57.2 °F 68% 29.74 in 10.0 mi SSE 8.1 mph - N/A   Overcast
6:15 AM 69.8 °F - 57.2 °F 64% 29.75 in 10.0 mi SE 3.5 mph - N/A   Overcast
6:35 AM 69.8 °F - 59.0 °F 68% 29.74 in 10.0 mi SSE 10.4 mph - N/A   Overcast
6:55 AM 69.8 °F - 59.0 °F 68% 29.75 in 10.0 mi SE 8.1 mph - N/A   Overcast
7:15 AM 69.8 °F - 59.0 °F 68% 29.76 in 10.0 mi SSE 8.1 mph - N/A   Overcast
7:35 AM 69.8 °F - 59.0 °F 68% 29.77 in 10.0 mi SSE 8.1 mph - N/A   Overcast
7:55 AM 69.8 °F - 59.0 °F 68% 29.77 in 10.0 mi SSE 5.8 mph - N/A   Overcast
8:35 AM 69.8 °F - 59.0 °F 68% 29.78 in 10.0 mi SSE 6.9 mph - N/A   Overcast
8:55 AM 69.8 °F - 59.0 °F 68% 29.78 in 10.0 mi SE 5.8 mph - N/A   Mostly Cloudy
9:15 AM 69.8 °F - 60.8 °F 73% 29.78 in 10.0 mi ESE 6.9 mph - N/A   Overcast
9:35 AM 69.8 °F - 60.8 °F 73% 29.78 in 10.0 mi SE 5.8 mph - N/A   Overcast
9:55 AM 69.8 °F - 60.8 °F 73% 29.78 in 7.0 mi ESE 5.8 mph - N/A   Overcast
10:15 AM 69.8 °F - 60.8 °F 73% 29.79 in 10.0 mi ESE 4.6 mph - N/A   Overcast
10:35 AM 71.6 °F - 60.8 °F 69% 29.78 in 10.0 mi ESE 6.9 mph - N/A   Overcast
10:55 AM 71.6 °F - 60.8 °F 69% 29.77 in 10.0 mi SE 6.9 mph - N/A   Overcast
11:15 AM 73.4 °F - 60.8 °F 65% 29.77 in 10.0 mi SE 6.9 mph 16.1 mph N/A   Overcast
11:55 AM 77.0 °F - 60.8 °F 57% 29.76 in 10.0 mi ESE 10.4 mph 17.3 mph N/A   Mostly Cloudy
12:15 PM 78.8 °F - 60.8 °F 54% 29.76 in 10.0 mi SSE 15.0 mph 18.4 mph N/A   Mostly Cloudy
12:35 PM 78.8 °F - 59.0 °F 51% 29.75 in 10.0 mi SSE 13.8 mph 20.7 mph N/A   Scattered Clouds
12:55 PM 78.8 °F - 59.0 °F 51% 29.75 in 10.0 mi SE 15.0 mph 21.9 mph N/A   Mostly Cloudy
1:15 PM 78.8 °F - 59.0 °F 51% 29.75 in 10.0 mi SSE 13.8 mph 23.0 mph N/A   Scattered Clouds
1:35 PM 80.6 °F 81.1 °F 59.0 °F 48% 29.74 in 10.0 mi SE 13.8 mph 21.9 mph N/A   Scattered Clouds
1:55 PM 82.4 °F 82.5 °F 59.0 °F 45% 29.74 in 10.0 mi SSE 15.0 mph 20.7 mph N/A   Scattered Clouds
2:15 PM 82.4 °F 82.5 °F 59.0 °F 45% 29.73 in 10.0 mi South 18.4 mph 21.9 mph N/A   Clear
2:35 PM 82.4 °F 82.5 °F 59.0 °F 45% 29.74 in 10.0 mi South 18.4 mph 23.0 mph N/A   Clear
2:55 PM 80.6 °F 81.1 °F 59.0 °F 48% 29.74 in 10.0 mi SE 10.4 mph - N/A   Clear
3:15 PM 82.4 °F 82.5 °F 59.0 °F 45% 29.71 in 10.0 mi SE 12.7 mph 19.6 mph N/A   Scattered Clouds
3:35 PM 84.2 °F 83.5 °F 57.2 °F 40% 29.71 in 10.0 mi SE 9.2 mph 18.4 mph N/A   Scattered Clouds
3:55 PM 82.4 °F 82.0 °F 57.2 °F 42% 29.70 in 10.0 mi SE 11.5 mph 20.7 mph N/A   Scattered Clouds
4:15 PM 84.2 °F 83.5 °F 57.2 °F 40% 29.69 in 10.0 mi SSE 16.1 mph 20.7 mph N/A   Clear
4:35 PM 82.4 °F 82.0 °F 57.2 °F 42% 29.69 in 10.0 mi SE 12.7 mph 19.6 mph N/A   Scattered Clouds
4:55 PM 84.2 °F 83.8 °F 59.0 °F 42% 29.69 in 10.0 mi SE 13.8 mph 19.6 mph N/A   Scattered Clouds
5:15 PM 82.4 °F 82.0 °F 57.2 °F 42% 29.70 in 10.0 mi SSE 17.3 mph 24.2 mph N/A   Scattered Clouds
5:35 PM 82.4 °F 82.0 °F 57.2 °F 42% 29.70 in 10.0 mi SSE 12.7 mph 24.2 mph N/A   Scattered Clouds
5:55 PM 82.4 °F 82.0 °F 57.2 °F 42% 29.71 in 10.0 mi SSE 12.7 mph 18.4 mph N/A   Scattered Clouds
6:15 PM 80.6 °F 80.8 °F 57.2 °F 45% 29.71 in 10.0 mi SE 10.4 mph 17.3 mph N/A   Scattered Clouds
6:35 PM 80.6 °F 80.8 °F 57.2 °F 45% 29.71 in 10.0 mi SSE 11.5 mph 17.3 mph N/A   Scattered Clouds
6:55 PM 80.6 °F 80.8 °F 57.2 °F 45% 29.72 in 10.0 mi SSE 13.8 mph 18.4 mph N/A   Scattered Clouds
7:15 PM 80.6 °F 80.5 °F 55.4 °F 42% 29.72 in 10.0 mi SSE 15.0 mph 23.0 mph N/A   Scattered Clouds
7:35 PM 78.8 °F - 57.2 °F 47% 29.71 in 10.0 mi SE 10.4 mph 19.6 mph N/A   Scattered Clouds
7:55 PM 78.8 °F - 55.4 °F 44% 29.71 in 10.0 mi SE 10.4 mph 17.3 mph N/A   Scattered Clouds
8:15 PM 78.8 °F - 57.2 °F 47% 29.72 in 10.0 mi SE 10.4 mph 17.3 mph N/A   Mostly Cloudy
8:35 PM 78.8 °F - 59.0 °F 51% 29.73 in 10.0 mi SE 5.8 mph - N/A   Mostly Cloudy
8:55 PM 78.8 °F - 59.0 °F 51% 29.73 in 10.0 mi ESE 5.8 mph - N/A   Scattered Clouds
9:35 PM 78.8 °F - 59.0 °F 51% 29.75 in 10.0 mi SSE 6.9 mph - N/A   Scattered Clouds
9:55 PM 78.8 °F - 60.8 °F 54% 29.75 in 10.0 mi SSE 9.2 mph - N/A   Scattered Clouds
10:15 PM 77.0 °F - 60.8 °F 57% 29.75 in 10.0 mi SSE 10.4 mph - N/A   Clear
10:35 PM 77.0 °F - 60.8 °F 57% 29.74 in 10.0 mi SSE 11.5 mph 17.3 mph N/A   Clear
10:55 PM 77.0 °F - 60.8 °F 57% 29.74 in 10.0 mi SSE 12.7 mph 18.4 mph N/A   Scattered Clouds
11:15 PM 77.0 °F - 62.6 °F 61% 29.74 in 10.0 mi SSE 12.7 mph 24.2 mph N/A   Clear
11:35 PM 77.0 °F - 62.6 °F 61% 29.74 in 10.0 mi SSE 9.2 mph 17.3 mph N/A   Clear
11:55 PM 77.0 °F - 62.6 °F 61% 29.75 in 10.0 mi SSE 9.2 mph - N/A   Clear